星链-4522 (STARLINK-4522 )

导读 | 星芒AI

STARLINK-4522 是 SpaceX Starlink 卫星互联网项目中的一颗低轨卫星,属于第53批发射的星链卫星之一。该卫星运行在约550公里高度的近地轨道,旨在为全球用户提供高速互联网服务。它采用先进的相控阵天线和激光通信技术,提高连接稳定性和数据传输效率。Starlink 项目致力于构建覆盖全球的卫星网络,尤其服务于偏远和网络基础设施薄弱地区。STARLINK-4522 的部署有助于增强 Starlink 网络的覆盖密度和性能。

基本信息
目录编号:
53388
目录名称:
STARLINK-4522
国际标识:
2022-097A
轨道中心:
EARTH
卫星名称:
星链-4522
卫星全名:
星链-4522 (STARLINK-4522 )
卫星状态:
在轨 (已飞行1183 天)
发射日期:
2022-08-10 UTC
国别 :
美国 (US)
星等 :
--
轨道信息
数据来源 国际轨道数据 AOE轨道数据
星历时间 2025-11-04T19:07:22+0800
15小时前
查看轨道信息
2025-10-30T09:00:00+0800
6天前
查看轨道信息
半长轴 6917.864km 6917.844km
偏心率 0.0000961 0.000134
轨道倾角 53.218° 53.218°
近地点辐角 96.855° 82.099°
升交点赤经 326.282° 350.621°
平近点角 263.255° 331.853°
近地点 539.064km 538.782km
远地点 540.394km 540.636km
周期 95.437分钟 95.437分钟
每日圈数 15.088455 15.08852
详细信息
固有亮度:
5
最大亮度:
2.5
卫星平台:
Starlink v1.5
覆盖范围:
全球
运营商:
太空探索技术公司
运营商所在国:
美国
制造商(研发单位):
太空探索技术公司
制造商所在国:
美国
使用方式:
暂无
卫星简介
星链(Starlink)计划是由太空探索技术公司(SpaceX)提出的一个巨型低轨卫星互联网星座项目,计划在2019年至2024年间在太空搭建由约1.2万颗卫星组成的“星链”网络,其中1584颗将部署在地球上空550千米处的近地轨道,并从2020年开始工作。该卫星仍在工作。
2D轨道图
3D轨道图
轨道高度分析图
轨道倾角分析图
轨道综合分析图
查看轨道综合分析图